Regional Weather Roundup
Issued by NWS

Home | Current Version | Previous Version | Graphics & Text | Print | Product List | Glossary On
Versions: 1 2 3 4 5 6 7 8 9 10 11 12 13 14 15 16 17 18 19 20 21 22 23 24 25 26 27 28 29 30 31 32 33 34 35 36 37 38 39 40 41 42 43 44 45 46 47 48 49 50
000
ASUS45 KBOU 290707
RWRCO

WEATHER ROUNDUP FOR COLORADO
NATIONAL WEATHER SERVICE DENVER/BOULDER CO
1200 AM MST MON DEC 29 2014

NOTE: "FAIR" INDICATES FEW OR NO CLOUDS BELOW 12000 FEET WITH NO
SIGNIFICANT WEATHER AND/OR OBSTRUCTIONS TO VISIBILITY.

COZ001>005-013-030-031-290800-
...NORTHWEST COLORADO...

CITY           SKY/WX    TMP DP  RH WIND       PRES   REMARKS
CRAIG          CLOUDY    18  15  88 CALM      29.98F FOG
HAYDEN         CLOUDY    18  12  79 CALM      29.96S
MEEKER         LGT SNOW  20  17  88 CALM      29.97S VSB 1
MOUNT WERNER   NOT AVBL
STEAMBOAT SPGS CLOUDY    17  15  92 CALM      29.94F
WALDEN         CLEAR     10   5  79 CALM      29.89F
$$

COZ006>008-011-290800-
...WEST CENTRAL VALLEYS...

CITY           SKY/WX    TMP DP  RH WIND       PRES   REMARKS
GRAND JUNCTION LGT SNOW  22  20  92 SW5       30.03S FOG     WCI  16
MONTROSE       FLURRIES  18  13  80 NE3       30.00S
EAGLE          CLOUDY    19  16  86 E3        29.98F
RIFLE          LGT SNOW  20  18  92 CALM      30.02S FOG
DELTA          CLOUDY    24  14  66 E3        30.00F
NUCLA          PTCLDY    21  14  73 E9        30.01F WCI  11
$$

COZ017>023-064>068-290800-
...SOUTHWEST COLORADO...

CITY           SKY/WX    TMP DP  RH WIND       PRES   REMARKS
DURANGO        PTCLDY     3  -1  83 N5        30.02F WCI  -6
CORTEZ         CLEAR      8   4  83 NE3       30.03F
PAGOSA SPRINGS MOCLDY   N/A N/A N/A CALM      30.01F
TELLURIDE      NOT AVBL
WOLF CREEK PAS LGT SNOW   3   1  92 MISG      29.86F
$$

COZ009-010-012-014-032>034-037-058>063-290800-
...CENTRAL COLORADO...

CITY           SKY/WX    TMP DP  RH WIND       PRES   REMARKS
ASPEN          LGT SNOW  13   9  84 CALM      29.91S FOG
BUENA VISTA    CLOUDY    15   7  71 CALM      29.88F
COPPER MTN     LGT SNOW   9   0  66 W10       29.78S WCI  -6
BERTHOUD PASS  NOT AVBL
COTTONWOOD PAS CLOUDY    19   7  58 CALM      29.84F
GUNNISON       PTCLDY    -2 -24  35 CALM      29.97F
KREMMLING      CLOUDY    14   7  73 CALM      29.93F
LEADVILLE      LGT SNOW  10   7  87 NE5       29.81F FOG     WCI   2
SALIDA         MOCLDY    23   9  55 SW13G18   29.97F WCI  11
SUNLIGHT       SNOW     N/A N/A N/A SW3       29.84F VSB 1/2
WILKERSON PASS CLOUDY     7   3  85 SW8       29.83S WCI  -6
$$

COZ069>075-290800-
...SAN LUIS VALLEY/SANGRE DE CRISTO MOUNTAINS...

CITY           SKY/WX    TMP DP  RH WIND       PRES   REMARKS
ALAMOSA        MOCLDY    -7 -10  87 E6        29.98F WCI -20
LA VETA PASS   NOT AVBL
SAGUACHE       MOCLDY     1  -4  78 CALM      29.98S
$$

COZ035-036-038>040-290800-
...NORTHERN COLORADO FRONT RANGE...

CITY           SKY/WX    TMP DP  RH WIND       PRES   REMARKS
DENVER INTL AP PTCLDY    19  11  70 SW10      29.92F WCI   7
DMNS CITY PARK   N/A     22  14  70 SW5       29.94S WCI  16
AURORA         MOCLDY    20  12  70 S8        29.93F WCI  10
FRONT RANGE AP PTCLDY    25  14  63 SW7       29.93F WCI  17
ERIE MUNI ARPT   N/A      6   4  91 MISG      29.96R
BOULDER MUN AP PTCLDY    18   9  68 N8        29.94R WCI   7
CENTENNIAL     MOCLDY    14   9  80 SE3       29.92F
BROOMFIELD     PTCLDY    27   9  46 W6        29.93S WCI  20
FORT COLLINS   PTCLDY    12   7  79 N8        29.96F WCI   1
LONGMONT       PTCLDY    10   6  81 SE3       29.98S
$$

COZ041-046-047-076>085-087-088-290800-
...PIKES PEAK/PALMER DIVIDE AND SOUTHERN FOOTHILLS...

CITY           SKY/WX    TMP DP  RH WIND       PRES   REMARKS
COLO. SPRINGS  CLEAR     19   7  59 N7        29.92S WCI  10
A. F. ACADEMY  PTCLDY    15   5  64 CALM      29.90F
ELLICOTT       NOT AVBL
FALCON         CLEAR     18   6  59 CALM      29.91F
FORT CARSON    PTCLDY    20  10  63 NW3       29.91F
LIMON          CLEAR      7   3  84 N5        29.94F WCI  -2
MONUMENT HILL  PTCLDY    10   3  72 S6        29.89S WCI   1
TRINIDAD       PTCLDY    15   6  67 W13       29.95S WCI   1
$$

COZ042>045-048>051-090-091-290800-
...NORTHEAST COLORADO...

CITY           SKY/WX    TMP DP  RH WIND       PRES   REMARKS
GREELEY ARPT   MOCLDY     3  -4  72 NW3       29.96F
AKRON          PTCLDY    10   8  92 W10       29.97S WCI  -4
BURLINGTON     FOG       15  12  88 W7        29.98S VSB 1/4 WCI   5
WRAY           PTCLDY    11   8  90 CALM      30.02R
STERLING       PTCLDY     9   7  92 SW7       30.00R WCI  -3
HOLYOKE        PTCLDY     7   3  85 CALM      30.01S
FORT MORGAN    MOCLDY    10   7  88 W6        29.99S WCI   0
$$

COZ086-089-092>099-290800-
...SOUTHEAST COLORADO...

CITY           SKY/WX    TMP DP  RH WIND       PRES   REMARKS
PUEBLO         CLEAR     16   8  71 NE5       29.95S WCI   9
LA JUNTA       CLEAR     19  14  81 CALM      29.97S
LAMAR          CLEAR     10   7  87 SW6       29.96F WCI   0
SPRINGFIELD      N/A     24  14  65 NW12      29.94R WCI  13
$$



USA.gov is the U.S. government's official web portal to all federal, state and local government web resources and services.